[[{"header":{"parameterUnit":"m.s-1","parameterCategory":1,"la1":30.2991,"la2":30.254,"lo1":-89.0895,"lo2":-89.0444,"dy":0.0017,"dx":0.0017,"nx":28,"ny":28,"refTime":"2024-03-13T03:00:00:Z","depth":0,"parameterNumber":2,"parameterNumberName":"U-component_of_WINDS"},"data":[0,0,0,0,0,0,0,0,0,0,0,0,0,0,0,0,0,0,0,0,0,0,0,0,0,0,0,0,0,0,0,0,0,0,0,0,0,0,0,0,0,0,0,0,0,0,0,0,0,0,0,0,0,0,0,0,0,0,-3.9469,-3.947,0,-3.9565,-3.9566,-3.9567,-3.9548,-3.9546,-3.9545,-3.9543,-3.9643,-3.9647,-3.9651,0,0,0,0,0,0,0,0,0,0,0,0,0,-3.9269,-3.9273,-3.9468,-3.947,-3.9471,-3.9565,-3.9566,-3.9568,-3.9548,-3.9546,-3.9544,-3.9542,-3.9641,-3.9646,-3.9652,0,0,0,0,0,0,0,0,0,0,0,0,0,-3.936,-3.9274,-3.9468,-3.9473,-3.9474,-3.9565,-3.9566,-3.9568,-3.9549,-3.9546,-3.9544,-3.9541,-3.964,-3.9646,-3.9652,-3.9745,0,0,-3.9672,-3.9675,0,0,0,0,0,0,0,0,-3.9354,-3.9367,-3.9471,-3.9472,-3.9474,-3.9542,-3.9532,-3.9627,-3.955,-3.952,-3.9543,-3.954,-3.9611,-3.962,-3.9644,-3.975,-3.9754,-3.9673,-3.9676,-3.9679,-3.9681,0,0,0,0,0,0,0,-3.9348,-3.9363,-3.9507,-3.9472,-3.9474,-3.947,-3.948,-3.955,-3.958,-3.9523,-3.9522,-3.9533,-3.9612,-3.9638,-3.9646,-3.9755,-3.9672,-3.9678,-3.9682,-3.9685,-3.9942,-3.9945,0,0,0,0,0,0,-3.934,-3.9358,-3.9504,-3.951,-3.9407,-3.9476,-3.9487,-3.9523,-3.9579,-3.9585,-3.9535,-3.9532,-3.9628,-3.9639,-3.965,-3.9761,-3.9679,-3.9685,-3.9689,-3.9939,-3.9943,-3.9946,0,0,0,0,0,0,-3.9336,-3.9353,-3.95,-3.9433,-3.9452,-3.9482,-3.9522,-3.9526,-3.9552,-3.9588,-3.9593,-3.9556,-3.9626,-3.964,-3.9721,-3.9764,-3.9688,-3.9694,-3.9935,-3.994,-3.9944,-3.9985,0,0,0,0,0,0,-3.933,-3.9352,-3.9387,-3.9434,-3.9455,-3.9569,-3.9525,-3.953,-3.9563,-3.9559,-3.9609,-3.9615,-3.9625,-3.9712,-3.9728,-3.9772,-3.9699,-3.9932,-3.9937,-3.9943,-3.998,-3.999,-3.9999,0,0,0,0,0,-3.9323,-3.9395,-3.9389,-3.9407,-3.95,-3.9572,-3.9584,-3.9594,-3.9567,-3.9602,-3.9626,-3.9613,-3.9757,-3.972,-3.9738,-3.9784,-3.9929,-3.9936,-3.9942,-3.9975,-3.9988,-3.9999,0,0,0,0,0,0,-3.9352,-3.9401,-3.9395,-3.9484,-3.9524,-3.9568,-3.9613,-3.9607,-3.9656,-3.965,-3.9661,-3.9673,-3.9755,-3.9778,-3.9736,-3.9877,-3.9839,-3.985,-3.9858,-3.9871,-3.988,-3.9872,-3.9704,0,0,0,0,0,-3.9368,-3.9423,-3.9463,-3.9538,-3.9558,-3.9583,-3.9614,-3.9619,-3.9661,-3.9677,-3.9707,-3.9748,-3.9803,-3.9838,-3.9891,-3.9984,-3.9994,-4.0025,-4.0034,-4.0042,-4.005,-4.0101,-4.0115,-3.9968,-3.9968,-3.9967,0,0,-3.9403,-3.9437,-3.947,-3.9544,-3.9576,-3.9632,-3.9597,-3.9658,-3.9699,-3.9687,-3.9764,-3.9788,-3.9835,-3.9922,-3.9962,-3.9944,-4.0094,-4.0051,-4.0057,-4.0061,-4.0109,-4.0123,-4.0136,-3.9972,-3.9971,-3.9971,0,0,-3.9495,-3.9526,-3.9591,-3.9624,-3.9672,-3.9688,-3.9704,-3.975,-3.9765,-3.9843,-3.9835,-3.9885,-3.9979,-4.0013,-4.0042,-4.0149,-4.0139,-4.0166,-4.0215,-4.0264,-4.0276,-4.0286,-4.0323,-4.0336,-4.0174,-4.0174,-4.0174,0,-3.9532,-3.9615,-3.9626,-3.9687,-3.972,-3.9712,-3.9778,-3.9809,-3.9872,-3.9895,-3.9875,-3.9992,-4.0024,-4.0118,-4.0144,-4.0169,-4.0187,-4.0159,-4.0273,-4.0284,-4.0293,-4.0328,-4.0342,-4.0177,-4.0177,-4.0177,-4.0176,0,-3.9658,-3.9717,-3.9764,-3.9824,-3.9862,-3.9926,-3.9946,-3.9984,-3.9986,-4.0005,-4.0085,-4.0122,-4.0182,-4.0205,-4.0208,-4.0301,-4.0288,-4.027,-4.0232,-4.031,-4.0343,-4.0357,-4.0181,-4.018,-4.0179,-4.0179,0,0,-3.9768,-3.9834,-3.9851,-3.9879,-3.9932,-3.9977,-4.0041,-4.0099,-4.0131,-4.0176,-4.0229,-4.031,-4.0294,-4.0327,-4.0334,-4.0378,-4.0458,-4.0355,-4.0356,-4.0371,-4.0562,-4.0573,-4.0589,-4.0453,-4.0456,-4.0458,-4.0557,0,-3.9863,-3.9975,-3.9987,-4.0086,-4.014,-4.0134,-4.019,-4.0229,-4.0249,-4.0298,-4.032,-4.0376,-4.0351,-4.0372,-4.0415,-4.0439,-4.0496,-4.0432,-4.0502,-4.0505,-4.0488,-4.0606,-4.0618,-4.071,-4.0571,-4.0573,-4.0574,0,-3.9989,-4.0036,-4.0141,-4.0187,-4.021,-4.026,-4.0314,-4.0361,-4.0406,-4.0417,-4.0455,-4.0456,-4.0523,-4.0484,-4.0575,-4.0532,-4.0562,-4.0578,-4.0582,-4.0587,-4.0543,-4.0613,-4.074,-4.0753,-4.0595,-4.0594,-4.0592,0,-4.0056,-4.0147,-4.0221,-4.0245,-4.0301,-4.0336,-4.0361,-4.0403,-4.0437,-4.0486,-4.0508,-4.0564,-4.0593,-4.0637,-4.0653,-4.0624,-4.0744,-4.0706,-4.0754,-4.0754,-4.0778,-4.0776,-4.091,-4.0801,-4.0801,-4.08,-4.08,0,-4.016,-4.0224,-4.0252,-4.0298,-4.037,-4.0384,-4.0455,-4.0478,-4.0516,-4.0566,-4.0566,-4.0613,-4.0633,-4.0684,-4.0698,-4.0771,-4.0785,-4.0796,-4.0798,-4.0795,-4.0793,-4.0813,-4.0806,-4.0804,-4.0803,-4.0802,-4.0802,0,-4.0247,-4.0269,-4.0349,-4.0396,-4.0409,-4.046,-4.05,-4.0544,-4.0564,-4.0628,-4.0644,-4.0675,-4.0734,-4.0756,-4.0829,-4.0838,-4.0923,-4.0921,-4.0907,-4.0907,-4.0953,-4.0948,-4.1103,-4.1123,-4.1003,-4.1004,-4.1005,0,-4.0311,-4.036,-4.0412,-4.0445,-4.0471,-4.0526,-4.056,-4.0577,-4.0613,-4.0668,-4.0706,-4.0766,-4.0814,-4.091,-4.0939,-4.0995,-4.0994,-4.1044,-4.1002,-4.0997,-4.0992,-4.0988,-4.0993,-4.1051,-4.1052,-4.1053,-4.1054,0,-4.0421,-4.043,-4.048,-4.0534,-4.0576,-4.0619,-4.0662,-4.0689,-4.0712,-4.0753,-4.0814,-4.0852,-4.0926,-4.0985,-4.1043,-4.1069,-4.1066,-4.1068,-4.1081,-4.1077,-4.1067,-4.1071,-4.0926,-4.1063,-4.1063,-4.1062,-4.1061,-4.1061,-4.0497,-4.054,-4.0584,-4.064,-4.0673,-4.0713,-4.0757,-4.0782,-4.0833,-4.0894,-4.0902,-4.0967,-4.1011,-4.1088,-4.1118,-4.1169,-4.1155,-4.1176,-4.1181,-4.1185,-4.1187,-4.106,-4.118,-4.118,-4.118,-4.118,-4.1179,0,-4.0606,-4.0634,-4.0686,-4.0745,-4.0789,-4.0782,-4.0829,-4.0866,-4.0924,-4.0965,-4.1013,-4.1083,-4.1141,-4.1175,-4.1233,-4.1268,-4.1268,-4.1282,-4.1279,-4.1285,-4.1197,-4.1179,-4.1281,-4.1281,-4.1281,-4.1281,-4.1281,-4.1281,-4.0668,-4.074,-4.0754,-4.0844,-4.0871,-4.0935,-4.0962,-4.0999,-4.1032,-4.111,-4.1158,-4.118,-4.1219,-4.128,-4.1332,-4.1341,-4.1362,-4.1377,-4.1385,-4.1302,-4.1291,-4.1281,-4.1263,-4.1382,-4.1382,-4.1468,-4.1468,-4.1469]},{"header":{"parameterUnit":"m.s-1","parameterCategory":1,"la1":30.2991,"la2":30.254,"lo1":-89.0895,"lo2":-89.0444,"dy":0.0017,"dx":0.0017,"nx":28,"ny":28,"refTime":"2024-03-13T03:00:00:Z","depth":0,"parameterNumber":3,"parameterNumberName":"V-component_of_WINDS"},"data":[0,0,0,0,0,0,0,0,0,0,0,0,0,0,0,0,0,0,0,0,0,0,0,0,0,0,0,0,0,0,0,0,0,0,0,0,0,0,0,0,0,0,0,0,0,0,0,0,0,0,0,0,0,0,0,0,0,0,2.6697,2.6698,0,2.6818,2.6819,2.682,2.684,2.6839,2.6838,2.6837,2.6961,2.6965,2.6969,0,0,0,0,0,0,0,0,0,0,0,0,0,2.6485,2.6489,2.6697,2.6698,2.67,2.6817,2.6819,2.6821,2.684,2.6839,2.6838,2.6837,2.6959,2.6964,2.697,0,0,0,0,0,0,0,0,0,0,0,0,0,2.6588,2.649,2.6696,2.6724,2.6727,2.6817,2.6819,2.6821,2.6841,2.6839,2.6837,2.6836,2.6958,2.6964,2.697,2.7042,0,0,2.699,2.6993,0,0,0,0,0,0,0,0,2.6582,2.6596,2.6718,2.6722,2.6726,2.6812,2.679,2.6895,2.6841,2.6798,2.6837,2.6835,2.6913,2.6923,2.6949,2.7047,2.7053,2.6991,2.6994,2.6997,2.6999,0,0,0,0,0,0,0,2.6575,2.6591,2.6745,2.672,2.6725,2.6731,2.6743,2.681,2.6862,2.6801,2.6803,2.6817,2.6915,2.6943,2.6952,2.7054,2.699,2.6996,2.7,2.7002,2.7221,2.7223,0,0,0,0,0,0,2.6563,2.6585,2.6741,2.6748,2.6649,2.6736,2.675,2.6786,2.6862,2.6872,2.6818,2.6817,2.6932,2.6944,2.6956,2.7047,2.6997,2.7003,2.7007,2.7219,2.7222,2.7224,0,0,0,0,0,0,2.6558,2.6577,2.6736,2.6667,2.6688,2.6741,2.6781,2.6789,2.6817,2.6875,2.6884,2.6837,2.6932,2.6947,2.7021,2.7052,2.7006,2.7012,2.7217,2.722,2.7223,2.7228,0,0,0,0,0,0,2.6552,2.6575,2.6602,2.6668,2.6691,2.6798,2.6783,2.6793,2.6828,2.6829,2.6895,2.6904,2.6932,2.7011,2.7027,2.706,2.7017,2.7214,2.7218,2.7222,2.7225,2.7231,2.7235,0,0,0,0,0,2.6545,2.6598,2.6603,2.6622,2.6726,2.6799,2.6813,2.6843,2.6831,2.6859,2.6896,2.6902,2.7046,2.7019,2.7037,2.7072,2.7213,2.7217,2.7222,2.7223,2.723,2.7235,0,0,0,0,0,0,2.6533,2.6607,2.6613,2.6689,2.6738,2.6803,2.6839,2.6849,2.6902,2.69,2.6936,2.695,2.7023,2.7054,2.7023,2.7146,2.7128,2.7137,2.7123,2.713,2.7135,2.7126,2.7022,0,0,0,0,0,2.654,2.6593,2.6654,2.6715,2.674,2.6785,2.6818,2.6837,2.6889,2.691,2.6953,2.7003,2.706,2.7096,2.7151,2.723,2.7246,2.7263,2.7268,2.7272,2.7279,2.7326,2.7335,2.7238,2.7238,2.7238,0,0,2.6553,2.66,2.6631,2.6714,2.6754,2.681,2.6802,2.686,2.6902,2.6919,2.6992,2.7025,2.7084,2.7161,2.7197,2.719,2.7309,2.7277,2.728,2.7285,2.7331,2.734,2.7348,2.7241,2.7241,2.724,0,0,2.6607,2.6647,2.6704,2.6745,2.6806,2.6836,2.685,2.6914,2.6937,2.7011,2.7025,2.7076,2.7172,2.7214,2.7248,2.7321,2.733,2.7338,2.7365,2.741,2.7418,2.7425,2.7453,2.7463,2.7345,2.7345,2.7345,0,2.6616,2.67,2.6731,2.679,2.6827,2.6846,2.6905,2.6943,2.7019,2.7045,2.7035,2.7159,2.7199,2.7288,2.7306,2.7332,2.7351,2.7331,2.7414,2.7421,2.7428,2.7456,2.7466,2.7346,2.7346,2.7345,2.7345,0,2.671,2.6768,2.6807,2.6881,2.6922,2.698,2.7022,2.706,2.7076,2.7108,2.7185,2.7235,2.7302,2.7324,2.734,2.7416,2.741,2.7407,2.739,2.7438,2.7465,2.7475,2.7347,2.7347,2.7346,2.7346,0,0,2.6759,2.6852,2.6866,2.6901,2.6971,2.7017,2.7077,2.7143,2.7177,2.7229,2.7282,2.7364,2.7363,2.7401,2.7422,2.7462,2.752,2.7454,2.7456,2.7467,2.7611,2.7614,2.7625,2.7526,2.7528,2.7529,2.7606,0,2.6823,2.6931,2.6962,2.7053,2.7109,2.7129,2.7181,2.7231,2.7263,2.7315,2.735,2.7409,2.7401,2.7425,2.7465,2.7504,2.755,2.7499,2.7577,2.7579,2.7563,2.7639,2.7642,2.7712,2.7617,2.7618,2.762,0,2.6911,2.6967,2.7064,2.713,2.7155,2.7201,2.7266,2.7315,2.7373,2.7394,2.7438,2.7456,2.7522,2.75,2.7592,2.7557,2.7591,2.7615,2.7619,2.7628,2.7603,2.7653,2.7735,2.7746,2.7636,2.7635,2.7634,0,2.6941,2.704,2.7112,2.7141,2.7219,2.7252,2.7286,2.7342,2.738,2.7437,2.7463,2.7526,2.7561,2.761,2.7646,2.7627,2.7736,2.7716,2.7756,2.7756,2.7779,2.7778,2.787,2.7798,2.7797,2.7797,2.7797,0,2.701,2.7069,2.7126,2.7171,2.7238,2.7274,2.7341,2.7376,2.7426,2.7478,2.7498,2.7547,2.759,2.7646,2.7674,2.7747,2.7762,2.7782,2.7789,2.7781,2.7779,2.7805,2.7802,2.78,2.7799,2.7799,2.7798,0,2.7055,2.7095,2.7175,2.7243,2.7261,2.7309,2.7367,2.7412,2.7445,2.7512,2.7529,2.7582,2.7648,2.7688,2.7772,2.7791,2.7873,2.7877,2.7853,2.7857,2.7896,2.7892,2.801,2.8028,2.7941,2.7942,2.7942,0,2.7097,2.7143,2.7217,2.7254,2.7289,2.7347,2.7388,2.7425,2.7466,2.7537,2.7574,2.7641,2.7698,2.7803,2.7849,2.7914,2.7921,2.7958,2.7931,2.7923,2.7925,2.7923,2.7929,2.7963,2.7964,2.7964,2.7965,0,2.7169,2.7187,2.7244,2.7309,2.7357,2.741,2.7463,2.7492,2.7538,2.7584,2.7653,2.7697,2.7783,2.7851,2.7921,2.7957,2.797,2.7973,2.7986,2.7979,2.7965,2.7976,2.7868,2.797,2.797,2.7969,2.7969,2.7969,2.7215,2.7259,2.7318,2.7382,2.7426,2.7475,2.7522,2.7561,2.7619,2.7693,2.7711,2.7784,2.7843,2.7938,2.7976,2.8034,2.8028,2.8046,2.8052,2.8056,2.8058,2.7954,2.8046,2.8046,2.8046,2.8046,2.8046,0,2.729,2.733,2.7388,2.7462,2.7513,2.7521,2.758,2.7623,2.7686,2.774,2.7796,2.7876,2.7943,2.7995,2.8063,2.81,2.8108,2.8117,2.8116,2.8125,2.8058,2.8041,2.811,2.811,2.811,2.811,2.811,2.811,2.7336,2.741,2.7436,2.7534,2.7573,2.7645,2.7679,2.7725,2.7769,2.7857,2.7913,2.7947,2.8001,2.8074,2.8136,2.815,2.8175,2.8184,2.8199,2.8136,2.8129,2.8122,2.8107,2.8189,2.8189,2.8261,2.8262,2.8263]}]]